Location: Boone Canyon
(38.3180°N, 119.2504°W)
Time: 18:19:24
(UTC+00:00)

FENGYUN 3A - Pass Details

Date: 18 September 2020
Orbit: 824 x 836 km, 98.4° (Epoch: 20 October)

Event Time Altitude Azimuth Distance (km) Brightness Sun altitude
Rises 13:05:25 0° 7° (N) 3,370 7.0 -7.9°
Reaches altitude 10° 13:07:49 10° 2° (N) 2,434 6.2 -7.5°
Maximum altitude 13:13:01 51° 288° (WNW) 1,033 3.9 -6.5°
Drops below altitude 10° 13:18:12 10° 214° (SSW) 2,427 5.7 -5.4°
Sets 13:20:36 0° 209° (SSW) 3,358 6.5 -5.0°
